| time (UTC) | temp C | wind direction | speed KPH | gust KPH | rain 1hr cm | rain 24hr cm | rain mn cm | humidity % | barometer mb |
| 20260504100202 | 24 | 51 | 1.6 | 4.8 | 0.00 | 0.53 | 0.00 | 86 | 1014.9 |
| 20260504081703 | 25 | 80 | 3.2 | 8.0 | 0.00 | 0.56 | 0.00 | 79 | 1014.8 |
| 20260504081202 | 25 | 65 | 1.6 | 4.8 | 0.00 | 0.56 | 0.00 | 78 | 1014.9 |
| 20260504080703 | 25 | 64 | 0.0 | 4.8 | 0.00 | 0.56 | 0.00 | 78 | 1014.9 |
| 20260504080203 | 25 | 42 | 3.2 | 4.8 | 0.00 | 0.56 | 0.00 | 77 | 1014.9 |
| 20260504070203 | 26 | 295 | 1.6 | 4.8 | 0.00 | 0.56 | 0.00 | 74 | 1015.6 |
| 20260504050702 | 27 | 1 | 4.8 | 11.3 | 0.00 | 0.56 | 0.00 | 70 | 1016.1 |
| 20260504050203 | 27 | 348 | 3.2 | 9.7 | 0.00 | 0.56 | 0.00 | 70 | 1016.1 |
| 20260504045703 | 27 | 25 | 1.6 | 4.8 | 0.00 | 0.56 | 0.00 | 69 | 1016.1 |
| 20260504045203 | 28 | 85 | 3.2 | 4.8 | 0.00 | 0.56 | 0.00 | 68 | 1016.1 |
| 20260504044703 | 28 | 337 | 3.2 | 8.0 | 0.00 | 0.56 | 0.00 | 69 | 1016.1 |
| 20260504044203 | 27 | 28 | 1.6 | 4.8 | 0.00 | 0.56 | 0.00 | 68 | 1016.2 |
| 20260504043703 | 27 | 25 | 4.8 | 9.7 | 0.00 | 0.56 | 0.00 | 69 | 1016.2 |
| 20260504043203 | 27 | 71 | 1.6 | 4.8 | 0.00 | 0.56 | 0.00 | 70 | 1016.3 |
| 20260504042203 | 27 | 343 | 1.6 | 8.0 | 0.00 | 0.56 | 0.00 | 71 | 1016.2 |
| 20260504041703 | 26 | 23 | 1.6 | 8.0 | 0.00 | 0.56 | 0.00 | 72 | 1016.4 |
| 20260504041203 | 26 | 46 | 3.2 | 4.8 | 0.00 | 0.56 | 0.00 | 72 | 1016.4 |
| 20260504040702 | 25 | 87 | 1.6 | 4.8 | 0.00 | 0.56 | 0.00 | 73 | 1016.5 |
| 20260504040203 | 25 | 352 | 1.6 | 4.8 | 0.00 | 0.56 | 0.00 | 74 | 1016.5 |
| 20260504035203 | 25 | 349 | 0.0 | 4.8 | 0.00 | 0.56 | 0.00 | 73 | 1016.5 |
| 20260504033703 | 25 | 7 | 1.6 | 4.8 | 0.00 | 0.56 | 0.00 | 73 | 1016.6 |
| 20260504031703 | 26 | 341 | 3.2 | 4.8 | 0.00 | 0.56 | 0.00 | 71 | 1016.4 |
| 20260504031202 | 26 | 66 | 3.2 | 4.8 | 0.00 | 0.56 | 0.00 | 71 | 1016.5 |
| 20260504030703 | 25 | 232 | 0.0 | 3.2 | 0.00 | 0.56 | 0.00 | 72 | 1016.7 |
| 20260504030203 | 25 | 7 | 1.6 | 4.8 | 0.00 | 0.56 | 0.00 | 72 | 1016.6 |
| 20260504025703 | 25 | 56 | 1.6 | 8.0 | 0.00 | 0.56 | 0.00 | 72 | 1016.7 |
| 20260504025203 | 25 | 98 | 4.8 | 8.0 | 0.00 | 0.56 | 0.00 | 71 | 1016.9 |
| 20260504024704 | 25 | 121 | 3.2 | 4.8 | 0.00 | 0.56 | 0.00 | 71 | 1016.9 |
| 20260504023703 | 25 | 319 | 3.2 | 4.8 | 0.00 | 0.56 | 0.00 | 70 | 1017.0 |
| 20260504023203 | 25 | 44 | 4.8 | 11.3 | 0.00 | 0.56 | 0.00 | 71 | 1016.8 |
| 20260504021703 | 26 | 357 | 1.6 | 4.8 | 0.00 | 0.56 | 0.00 | 70 | 1016.8 |
| 20260504021203 | 25 | 109 | 1.6 | 9.7 | 0.00 | 0.56 | 0.00 | 72 | 1016.7 |
| 20260504020703 | 25 | 279 | 3.2 | 9.7 | 0.00 | 0.56 | 0.00 | 71 | 1016.7 |
| 20260504015703 | 25 | 67 | 4.8 | 12.9 | 0.00 | 0.56 | 0.00 | 71 | 1016.6 |
| 20260504015203 | 25 | 73 | 3.2 | 8.0 | 0.00 | 0.56 | 0.00 | 72 | 1016.5 |
| 20260504014204 | 25 | 348 | 1.6 | 4.8 | 0.00 | 0.56 | 0.00 | 73 | 1016.7 |
| 20260504013703 | 25 | 132 | 1.6 | 4.8 | 0.00 | 0.56 | 0.00 | 73 | 1016.7 |
| 20260504013203 | 25 | 132 | 3.2 | 8.0 | 0.00 | 0.56 | 0.00 | 72 | 1016.6 |
| 20260504012703 | 25 | 313 | 1.6 | 11.3 | 0.00 | 0.56 | 0.00 | 73 | 1016.7 |
| 20260504012203 | 25 | 326 | 1.6 | 12.9 | 0.00 | 0.56 | 0.00 | 73 | 1016.7 |
| 20260504011703 | 25 | 270 | 3.2 | 4.8 | 0.00 | 0.56 | 0.00 | 72 | 1016.5 |
| 20260504011203 | 25 | 225 | 1.6 | 4.8 | 0.00 | 0.56 | 0.00 | 72 | 1016.4 |
| 20260504010703 | 25 | 252 | 1.6 | 4.8 | 0.00 | 0.56 | 0.00 | 73 | 1016.3 |
| 20260504010203 | 25 | 181 | 1.6 | 3.2 | 0.00 | 0.56 | 0.00 | 74 | 1016.1 |
| 20260504005703 | 24 | 228 | 1.6 | 3.2 | 0.00 | 0.56 | 0.00 | 74 | 1016.0 |
| 20260504005203 | 24 | 125 | 1.6 | 3.2 | 0.00 | 0.56 | 0.00 | 74 | 1016.1 |
| 20260504004703 | 24 | 273 | 1.6 | 8.0 | 0.00 | 0.56 | 0.00 | 75 | 1016.2 |
| 20260504004203 | 24 | 324 | 1.6 | 4.8 | 0.00 | 0.56 | 0.00 | 75 | 1016.1 |
| 20260504003703 | 23 | 62 | 1.6 | 4.8 | 0.00 | 0.56 | 0.00 | 75 | 1016.2 |
| 20260504003203 | 23 | 58 | 3.2 | 4.8 | 0.00 | 0.56 | 0.00 | 75 | 1016.2 |
| 20260504002204 | 23 | 148 | 1.6 | 8.0 | 0.00 | 0.56 | 0.00 | 77 | 1016.2 |
| 20260504001703 | 23 | 61 | 3.2 | 8.0 | 0.00 | 0.56 | 0.00 | 76 | 1016.1 |
| 20260504001204 | 23 | 346 | 0.0 | 4.8 | 0.00 | 0.56 | 0.00 | 78 | 1016.1 |
| 20260504000703 | 23 | 187 | 1.6 | 1.6 | 0.00 | 0.56 | 0.00 | 78 | 1016.0 |
| 20260504000204 | 23 | 353 | 1.6 | 4.8 | 0.00 | 0.56 | 0.00 | 78 | 1015.8 |
| 20260503235703 | 23 | 323 | 1.6 | 3.2 | 0.00 | 0.56 | 0.00 | 79 | 1015.9 |
| 20260503235204 | 23 | 353 | 1.6 | 3.2 | 0.00 | 0.56 | 0.00 | 79 | 1015.9 |
| 20260503234703 | 22 | 340 | 0.0 | 3.2 | 0.00 | 0.56 | 0.00 | 79 | 1015.7 |
| 20260503234203 | 22 | 317 | 1.6 | 3.2 | 0.00 | 0.56 | 0.00 | 80 | 1015.7 |
| 20260503233703 | 22 | 36 | 1.6 | 4.8 | 0.00 | 0.56 | 0.00 | 81 | 1015.6 |
| 20260503232703 | 22 | 87 | 3.2 | 4.8 | 0.00 | 0.56 | 0.00 | 82 | 1015.5 |
| 20260503232203 | 22 | 147 | 1.6 | 3.2 | 0.00 | 0.56 | 0.00 | 83 | 1015.6 |
| 20260503231704 | 22 | 88 | 3.2 | 4.8 | 0.00 | 0.56 | 0.00 | 83 | 1015.4 |
| 20260503231203 | 22 | 83 | 1.6 | 4.8 | 0.00 | 0.56 | 0.00 | 83 | 1015.5 |
| 20260503230703 | 22 | 96 | 1.6 | 4.8 | 0.00 | 0.56 | 0.00 | 83 | 1015.4 |
| 20260503225703 | 22 | 58 | 0.0 | 1.6 | 0.00 | 0.56 | 0.00 | 83 | 1015.3 |
| 20260503225203 | 22 | 359 | 0.0 | 3.2 | 0.00 | 0.56 | 0.00 | 82 | 1015.4 |
| 20260503224703 | 22 | 32 | 0.0 | 1.6 | 0.00 | 0.56 | 0.00 | 83 | 1015.3 |
| 20260503223704 | 22 | 83 | 0.0 | 1.6 | 0.00 | 0.56 | 0.00 | 82 | 1015.0 |
| 20260503223203 | 22 | 83 | 0.0 | 0.0 | 0.00 | 0.56 | 0.00 | 83 | 1014.8 |
| 20260503221704 | 22 | 39 | 1.6 | 3.2 | 0.00 | 0.56 | 0.00 | 82 | 1014.5 |
| 20260503221203 | 22 | 27 | 0.0 | 3.2 | 0.00 | 0.56 | 0.00 | 82 | 1014.5 |
| 20260503220703 | 21 | 70 | 0.0 | 1.6 | 0.00 | 0.56 | 0.00 | 83 | 1014.4 |
| 20260503220204 | 21 | 69 | 0.0 | 1.6 | 0.00 | 0.56 | 0.00 | 84 | 1014.3 |
| 20260503215704 | 21 | 112 | 0.0 | 1.6 | 0.00 | 0.56 | 0.00 | 84 | 1014.1 |
| 20260503214703 | 22 | 147 | 1.6 | 4.8 | 0.00 | 0.56 | 0.00 | 84 | 1013.9 |
| 20260503214203 | 22 | 104 | 3.2 | 4.8 | 0.00 | 0.56 | 0.00 | 84 | 1013.8 |
| 20260503213704 | 22 | 2 | 0.0 | 1.6 | 0.00 | 0.56 | 0.00 | 84 | 1013.8 |
| 20260503212703 | 22 | 0 | 0.0 | 1.6 | 0.00 | 0.56 | 0.00 | 84 | 1013.8 |
| 20260503212204 | 22 | 0 | 0.0 | 1.6 | 0.00 | 0.56 | 0.00 | 85 | 1013.6 |
| 20260503211703 | 22 | 359 | 0.0 | 1.6 | 0.00 | 0.56 | 0.00 | 84 | 1013.5 |
| 20260503211203 | 22 | 359 | 0.0 | 3.2 | 0.00 | 0.56 | 0.00 | 84 | 1013.3 |
| 20260503210704 | 22 | 1 | 0.0 | 0.0 | 0.00 | 0.56 | 0.00 | 84 | 1013.3 |
| 20260503210203 | 22 | 7 | 0.0 | 4.8 | 0.00 | 0.56 | 0.00 | 85 | 1013.3 |
| 20260503205703 | 21 | 74 | 0.0 | 1.6 | 0.00 | 0.56 | 0.00 | 85 | 1013.2 |
| 20260503205203 | 21 | 74 | 0.0 | 1.6 | 0.00 | 0.56 | 0.00 | 84 | 1013.3 |
| 20260503204704 | 22 | 74 | 0.0 | 1.6 | 0.00 | 0.56 | 0.00 | 85 | 1013.2 |
| 20260503204203 | 21 | 74 | 0.0 | 1.6 | 0.00 | 0.56 | 0.00 | 85 | 1013.2 |
| 20260503203704 | 21 | 93 | 1.6 | 3.2 | 0.00 | 0.56 | 0.00 | 85 | 1013.0 |
| 20260503203204 | 21 | 84 | 1.6 | 3.2 | 0.00 | 0.56 | 0.00 | 85 | 1012.9 |
| 20260503202703 | 21 | 68 | 1.6 | 4.8 | 0.00 | 0.56 | 0.00 | 85 | 1012.9 |
| 20260503201703 | 21 | 93 | 0.0 | 3.2 | 0.00 | 0.56 | 0.00 | 85 | 1012.8 |
| 20260503200703 | 21 | 108 | 1.6 | 4.8 | 0.00 | 0.56 | 0.00 | 85 | 1012.7 |
| 20260503195704 | 22 | 60 | 0.0 | 1.6 | 0.00 | 0.56 | 0.00 | 85 | 1013.0 |
| 20260503195203 | 22 | 60 | 0.0 | 1.6 | 0.00 | 0.56 | 0.00 | 85 | 1013.0 |
| 20260503194704 | 22 | 53 | 1.6 | 3.2 | 0.00 | 0.56 | 0.00 | 84 | 1012.9 |
| 20260503194204 | 22 | 65 | 0.0 | 1.6 | 0.00 | 0.56 | 0.00 | 85 | 1013.1 |
| 20260503193703 | 21 | 82 | 1.6 | 3.2 | 0.00 | 0.56 | 0.00 | 86 | 1013.1 |
| 20260503193203 | 22 | 83 | 1.6 | 3.2 | 0.00 | 0.56 | 0.00 | 86 | 1013.1 |
| 20260503192703 | 21 | 100 | 1.6 | 3.2 | 0.00 | 0.56 | 0.00 | 86 | 1013.0 |
| 20260503192204 | 22 | 112 | 1.6 | 3.2 | 0.00 | 0.56 | 0.00 | 86 | 1013.2 |
| 20260503191204 | 22 | 86 | 1.6 | 4.8 | 0.00 | 0.56 | 0.00 | 85 | 1013.2 |
| 20260503190704 | 22 | 55 | 0.0 | 1.6 | 0.00 | 0.56 | 0.00 | 86 | 1013.2 |
| 20260503190203 | 22 | 98 | 0.0 | 0.0 | 0.00 | 0.56 | 0.00 | 85 | 1013.3 |
| 20260503185703 | 22 | 98 | 0.0 | 3.2 | 0.00 | 0.56 | 0.00 | 84 | 1013.4 |
| 20260503185203 | 22 | 15 | 1.6 | 3.2 | 0.00 | 0.56 | 0.00 | 85 | 1013.4 |
| 20260503184704 | 22 | 6 | 1.6 | 1.6 | 0.00 | 0.56 | 0.00 | 85 | 1013.4 |
| 20260503184203 | 22 | 293 | 0.0 | 1.6 | 0.00 | 0.56 | 0.00 | 85 | 1013.4 |
| 20260503183704 | 22 | 306 | 0.0 | 1.6 | 0.00 | 0.56 | 0.00 | 85 | 1013.5 |
| 20260503182704 | 22 | 6 | 0.0 | 1.6 | 0.00 | 0.56 | 0.00 | 85 | 1013.2 |
| 20260503182203 | 22 | 15 | 0.0 | 3.2 | 0.00 | 0.56 | 0.00 | 86 | 1013.3 |
| 20260503181703 | 22 | 80 | 1.6 | 3.2 | 0.00 | 0.56 | 0.00 | 86 | 1013.2 |
| 20260503181203 | 22 | 73 | 0.0 | 3.2 | 0.00 | 0.56 | 0.00 | 85 | 1013.5 |
| 20260503180704 | 22 | 65 | 1.6 | 4.8 | 0.00 | 0.56 | 0.00 | 86 | 1013.6 |
| 20260503180204 | 22 | 93 | 0.0 | 1.6 | 0.00 | 0.56 | 0.00 | 87 | 1013.8 |
| 20260503175204 | 22 | 83 | 0.0 | 3.2 | 0.00 | 0.56 | 0.00 | 87 | 1014.0 |
| 20260503174704 | 22 | 60 | 0.0 | 1.6 | 0.00 | 0.56 | 0.00 | 87 | 1014.0 |
| 20260503174203 | 22 | 60 | 1.6 | 4.8 | 0.00 | 0.56 | 0.00 | 87 | 1014.0 |
| 20260503173703 | 22 | 30 | 0.0 | 1.6 | 0.00 | 0.56 | 0.00 | 86 | 1014.2 |
| 20260503173204 | 22 | 29 | 0.0 | 3.2 | 0.00 | 0.56 | 0.00 | 88 | 1014.5 |
| 20260503172704 | 22 | 84 | 0.0 | 0.0 | 0.00 | 0.56 | 0.00 | 88 | 1014.5 |
| 20260503171703 | 22 | 80 | 1.6 | 4.8 | 0.00 | 0.56 | 0.00 | 90 | 1014.6 |
| 20260503170703 | 22 | 98 | 1.6 | 3.2 | 0.00 | 0.56 | 0.00 | 91 | 1014.7 |
| 20260503170204 | 22 | 85 | 1.6 | 4.8 | 0.00 | 0.56 | 0.00 | 91 | 1014.8 |
| 20260503160203 | 22 | 288 | 0.0 | 1.6 | 0.03 | 0.56 | 0.00 | 91 | 1014.9 |
| 20260503150704 | 22 | 317 | 1.6 | 4.8 | 0.03 | 0.53 | 0.53 | 92 | 1014.8 |
| 20260503150204 | 22 | 334 | 3.2 | 4.8 | 0.03 | 0.53 | 0.53 | 92 | 1014.9 |
| 20260503131204 | 23 | 302 | 0.0 | 1.6 | 0.25 | 0.33 | 0.33 | 95 | 1014.7 |
| 20260503130704 | 23 | 290 | 1.6 | 4.8 | 0.28 | 0.33 | 0.33 | 94 | 1014.5 |
| 20260503130204 | 23 | 295 | 0.0 | 4.8 | 0.28 | 0.33 | 0.33 | 94 | 1014.3 |
| 20260503120203 | 23 | 8 | 1.6 | 3.2 | 0.00 | 0.05 | 0.05 | 92 | 1013.9 |
| 20260503110702 | 23 | 150 | 0.0 | 3.2 | 0.03 | 0.05 | 0.05 | 93 | 1012.5 |
| 20260503110202 | 23 | 152 | 1.6 | 3.2 | 0.03 | 0.05 | 0.05 | 92 | 1012.4 |